Tracking 27126 objects as of 30-Mar-2023
HD Live streaming from Space Station
objects crossing your sky now

ISO

Track ISO now!
ISO is classified as:


NORAD ID: 23715
Int'l Code: 1995-062A
Perigee: 539.4 km
Apogee: 70,054.1 km
Inclination: 6.5 °
Period: 1,410.8 minutes
Semi major axis: 41667 km
RCS: 3.9811 m2 (large)
Launch date: November 17, 1995
Source: European Space Agency (ESA)
Launch site: FRENCH GUIANA (FRGUI)
Your satellite tracking list
Your tracking list is empty




NASA's NSSDC Master Catalog

Two Line Element Set (TLE):
1 23715U 95062A   23089.39112768 -.00000223  00000-0 -16564-2 0  9992
2 23715   6.5310  26.1623 8341536 101.4423 350.8990  1.02071060101687
Source of the keplerian elements: AFSPC